TimeEST,TemperatureF,Dew PointF,Humidity,Sea Level PressureIn,VisibilityMPH,Wind Direction,Wind SpeedMPH,Gust SpeedMPH,PrecipitationIn,Events,Conditions,WindDirDegrees,DateUTC
12:56 AM,39.0,25.0,57,30.28,7.0,West,6.9,-,N/A,,Clear,260,2012-11-30 05:56:00
1:56 AM,37.0,25.0,62,30.30,7.0,WSW,5.8,-,N/A,,Clear,250,2012-11-30 06:56:00
2:56 AM,37.9,25.0,60,30.29,7.0,West,6.9,-,N/A,,Clear,260,2012-11-30 07:56:00
3:56 AM,37.0,24.1,59,30.30,7.0,West,5.8,-,N/A,,Clear,270,2012-11-30 08:56:00
4:56 AM,33.1,24.1,70,30.31,7.0,NW,4.6,-,N/A,,Clear,310,2012-11-30 09:56:00
5:56 AM,30.9,25.0,79,30.34,6.0,North,4.6,-,N/A,,Haze,10,2012-11-30 10:56:00
7:56 AM,35.1,25.0,67,30.39,6.0,North,4.6,-,N/A,,Haze,10,2012-11-30 12:56:00
8:56 AM,39.0,25.0,57,30.40,6.0,NE,6.9,-,N/A,,Haze,50,2012-11-30 13:56:00
9:56 AM,39.9,26.1,58,30.42,8.0,NE,10.4,-,N/A,,Mostly Cloudy,50,2012-11-30 14:56:00
10:56 AM,41.0,28.0,60,30.43,8.0,NNE,10.4,-,N/A,,Overcast,20,2012-11-30 15:56:00
11:56 AM,41.0,28.0,60,30.42,10.0,NE,9.2,-,N/A,,Mostly Cloudy,40,2012-11-30 16:56:00
12:56 PM,41.0,27.0,57,30.41,10.0,ENE,6.9,-,N/A,,Scattered Clouds,70,2012-11-30 17:56:00
1:56 PM,41.0,26.1,55,30.42,10.0,NE,6.9,-,N/A,,Overcast,50,2012-11-30 18:56:00
2:56 PM,39.9,25.0,55,30.43,9.0,East,5.8,-,N/A,,Overcast,100,2012-11-30 19:56:00
3:56 PM,37.9,19.9,48,30.45,10.0,East,9.2,-,N/A,,Overcast,80,2012-11-30 20:56:00
4:56 PM,37.9,18.0,45,30.45,10.0,ENE,8.1,-,N/A,,Overcast,70,2012-11-30 21:56:00
5:56 PM,34.0,19.9,56,30.47,10.0,NE,10.4,-,N/A,,Mostly Cloudy,40,2012-11-30 22:56:00
6:56 PM,34.0,19.0,54,30.49,10.0,NNE,10.4,-,N/A,,Overcast,30,2012-11-30 23:56:00
7:56 PM,33.8,19.4,56,30.50,10.0,NE,12.7,-,N/A,,Overcast,40,2012-12-01 00:56:00
8:56 PM,33.1,21.9,64,30.51,10.0,NE,13.8,-,N/A,,Overcast,40,2012-12-01 01:56:00
9:56 PM,33.8,21.2,60,30.50,10.0,ENE,13.8,-,N/A,,Unknown,60,2012-12-01 02:56:00
10:56 PM,34.0,21.9,61,30.51,10.0,ENE,12.7,-,N/A,,Overcast,60,2012-12-01 03:56:00
11:56 PM,34.0,21.9,61,30.51,10.0,NE,11.5,-,N/A,,Overcast,50,2012-12-01 04:56:00